Regional Weather Roundup
Issued by NWS Sioux Falls, SD

Home | Current Version | Previous Version | Text Only | Print | Product List | Glossary On
Versions: 1 2 3 4 5 6 7 8 9 10 11 12 13 14 15 16 17 18 19 20 21 22 23 24 25 26 27 28 29 30 31 32 33 34 35 36 37 38 39 40 41 42 43 44 45 46 47 48 49 50
000
ASUS43 KFSD 190610
RWRFSD

WEATHER ROUNDUP FOR SE SOUTH DAKOTA/SW MINNESOTA/NW IOWA
NATIONAL WEATHER SERVICE SIOUX FALLS SD
100 AM CDT FRI SEP 19 2014

NOTE: "FAIR" INDICATES FEW OR NO CLOUDS BELOW 12,000 FEET WITH NO
SIGNIFICANT WEATHER AND OR OBSTRUCTIONS TO VISIBILITY.


SDZ038>040-050-052>070-190700-
SOUTHEAST SOUTH DAKOTA

CITY           SKY/WX    TMP DP  RH WIND       PRES   REMARKS
CHAMBERLAIN    MOCLDY    62  61  94 S9        29.77F
6HR MIN TEMP:  60; 6HR MAX TEMP:  74;

HURON          CLOUDY    66  57  72 S14G23    29.79F
6HR MIN TEMP:  65; 6HR MAX TEMP:  72;

MADISON        CLOUDY    61  57  88 S16G23    29.88S
MITCHELL       CLOUDY    66  58  75 S17G29    29.82F
6HR MIN TEMP:  66; 6HR MAX TEMP:  72;

SIOUX FALLS    CLOUDY    63  54  72 S15G28    29.90F
6HR MIN TEMP:  62; 6HR MAX TEMP:  71;

WINNER         FAIR      68  62  81 S22G30    29.75F
YANKTON        CLEAR     63  55  77 SE13      29.89F
$$

MNZ071-072-080-081-089-090-097-098-190700-
SOUTHWEST MINNESOTA

CITY           SKY/WX    TMP DP  RH WIND       PRES   REMARKS
FAIRMONT       MOCLDY    55  45  67 S10       29.98F
JACKSON        PTCLDY    61  52  72 S16       29.97F
LUVERNE        MOCLDY    61  54  77 S10G18    29.94F
MARSHALL       MOCLDY    63  50  63 S18       29.88F
6HR MIN TEMP:  63; 6HR MAX TEMP:  72;

MONTEVIDEO     MOCLDY    61  54  77 S13       29.89F
PIPESTONE      MOCLDY    61  52  72 S14G21    29.91F
REDWOOD FALLS  PTCLDY    58  50  75 S12       29.92S
TRACY          PTCLDY    61  52  73 S13G20    29.91S
WINDOM         MOCLDY    61  54  77 S14G20    29.95S
WORTHINGTON    PTCLDY    57  54  88 S18G24    29.96R
$$

IAZ001>003-012>014-020>022-031-032-NEZ013-014-SDZ071-190700-
NORTHWEST IOWA

CITY           SKY/WX    TMP DP  RH WIND       PRES   REMARKS
CHEROKEE       PTCLDY    58  57  96 S7        29.98S
DENISON        PTCLDY    59  57  94 S12G20    29.97S
ESTHERVILLE    CLEAR     56  52  86 S12       29.97F
LE MARS          N/A     59  55  88 S13       29.95S
ORANGE CITY    CLEAR     61  54  77 S9        29.95S
SHELDON        PTCLDY    57  55  94 S10       29.95R
SIOUX CITY     CLEAR     60  57  89 SE9       29.95S
6HR MIN TEMP:  60; 6HR MAX TEMP:  73;

SPENCER        PTCLDY    59  54  83 S15       29.97F
6HR MIN TEMP:  59; 6HR MAX TEMP:  67;

STORM LAKE     PTCLDY    57  57 100 S16       29.98F
$$

ABBREVIATIONS USED IN REMARKS
   TC - TEMPERATURE IN CELSIUS
  WCI - WIND CHILL INDEX
   HX - HEAT INDEX
  VSB - VISIBILITY



USA.gov is the U.S. government's official web portal to all federal, state and local government web resources and services.